STARLINK-2223 (47781 NORAD) Tracking and Keplerian Element Data

This shows tracking and keplerian element data for the satellite.

Feedback or suggestion? Click here.




ElementValue
Catalog47781
NameSTARLINK-2223
Epoch Orbit1783
Epoch Day170.32625145
Epoch Year2021
RAAN32.576
Inclination53.0566
Eccentricity0.0002284
Argument of Perigee77.9019
Mean Anonmoly282.2225
Mean Motion15.06398812
Decay Rate-8.03E-06
L11 47781U 21017BM 21170.32625145 -.00000803 00000-0 -35008-4 0 9990
L22 47781 53.0566 32.5760 0002284 77.9019 282.2225 15.06398812 17831

Live tracking and technical data element details for STARLINK-2223 (NORAD 47781). STARLINK-2223 can be tracked NOW for your location showing map with azimuth and elevation plus other details from your city location.

Track the satellite on the map from your city or location and see movement details for azimuth, elevation, latitude, longitude, range, height, and movement on the map or in text.







IsCatalogInMostPopularTable: catalog: 47781, numindb: 42
Update: records affected: 1



GetName: 47781 STARLINK-2223

Hit Count: updated at: Mon, 21 Jun 2021 04:44:44 GMT